{"data":{"norad_id":65249,"intl_designator":"2025-179Q","name":"STARLINK-34925","alt_names":[],"object_type":"PAYLOAD","status":"ACTIVE","operator":null,"country":"US","launch_date":"2025-08-18","launch_site_code":"AFWTR","launch_vehicle":null,"mission":null,"orbit_class":"UNKNOWN","rcs_meters":null,"size_class":null,"mass_kg":null,"dimensions":null,"purposes":["comms"],"wikipedia_slug":null,"has_3d_model":false,"image_url":null,"decayed_at":null,"tle_current":{"epoch":"2026-05-25T03:13:12.623232Z","epoch_age_seconds":59854,"freshness":"FRESH","line1":"1 65249U 25179Q   26145.13417388  .00003334  00000+0  23504-3 0  9992","line2":"2 65249  97.4503 187.9918 0001841 125.2749 234.8651 15.05649773 43321","mean_motion":15.05649773,"eccentricity":0.0001841,"inclination_deg":97.4503,"raan_deg":187.9918,"arg_perigee_deg":125.2749,"mean_anomaly_deg":234.8651,"bstar":0.00023504,"rev_number":4332,"period_min":95.639771334791,"perigee_km":548.23647018585,"apogee_km":550.78723049254,"semimajor_km":6927.6488503392,"source":"CELESTRAK","updated_at":"2026-05-25T13:38:20.726981Z"}}}